Location: Innerarity Island Observatory
(30.3139°N, 87.4867°W)
Time: 19:49:49
(UTC-05:00)

JAS-2 - Visible Passes

Search period start: 19 April 2015 00:00
Search period end: 29 April 2015 00:00
Orbit: 801 x 1321 km, 98.5° (Epoch: 19 April)

Date Brightness Start Highest point End Pass type
(mag) Time Alt. Az. Time Alt. Az. Time Alt. Az.
19 Apr 11.2 04:06:32 10° NE 04:11:57 29° E 04:16:58 10° SSE visible
19 Apr 10.3 05:51:19 10° N 05:57:03 32° WNW 06:02:07 10° SW visible
20 Apr 9.5 04:55:50 10° NNE 05:02:20 85° ESE 05:08:03 10° SSW visible
21 Apr 11.3 04:01:52 10° NE 04:06:57 26° E 04:11:44 10° SSE visible
21 Apr 10.2 05:46:26 10° N 05:52:09 34° WNW 05:57:14 10° SW visible
22 Apr 9.5 04:51:02 10° NNE 04:57:23 79° ESE 05:03:00 10° S visible
23 Apr 11.4 03:57:13 10° NE 04:01:56 24° E 04:06:27 10° SE visible
23 Apr 10.1 05:41:32 10° N 05:47:15 36° WNW 05:52:19 10° SW visible
24 Apr 9.6 04:46:12 10° NNE 04:52:25 72° E 04:57:56 10° S visible
25 Apr 11.5 03:52:35 10° NE 03:56:55 21° E 04:01:09 10° SE visible
25 Apr 9.9 05:36:37 10° N 05:42:19 39° WNW 05:47:24 10° SW visible
26 Apr 9.7 04:41:23 10° NNE 04:47:27 66° E 04:52:52 10° S visible
27 Apr 11.7 03:47:58 10° NE 03:51:53 19° E 03:55:48 10° SE visible
27 Apr 9.8 05:31:42 10° N 05:37:23 42° WNW 05:42:28 10° SW visible
28 Apr 9.8 04:36:35 10° NNE 04:42:28 59° E 04:47:46 10° S visible
